Hourly Data Report for October 25, 2016

All times are specified in Local Standard Time (LST). Add 1 hour to adjust for Daylight Saving Time where and when it is observed.

PENTICTON A
BRITISH COLUMBIA

49°27'45.000" N
119°36'08.000" W
344.40 m
1126146
71889
YYF

Download Data

Hourly Data (October 2016)
Hourly Data Report for October 25, 2016
Temp Definition
°C
Dew Point Temp Definition
°C
Rel Hum Definition
%
Wind Dir Definition
10's deg

Wind Spd Definition
km/h
Visibility Definition
km
Stn Press Definition
kPa
Hmdx Definition


Wind Chill Definition


Weather Definition


TIME
00:00 Legend Double Dagger 8.3 8.0 98 1 5 16.1 96.74     Rain
01:00 Legend Double Dagger 8.6 8.2 97 33 11 16.1 96.78     Rain
02:00 Legend Double Dagger 9.0 7.9 93 27 6 16.1 96.81     Rain
03:00 Legend Double Dagger 8.9 8.5 97 36 1 16.1 96.86     Rain
04:00 Legend Double Dagger 8.9 8.6 98 30 10 16.1 96.97     Rain
05:00 Legend Double Dagger 8.6 8.3 98 1 7 16.1 97.05     Rain
06:00 Legend Double Dagger 8.4 8.1 98 26 4 24.1 97.16     LegendNANA
07:00 Legend Double Dagger 8.4 8.1 98 36 3 24.1 97.26     Mostly Cloudy
08:00 Legend Double Dagger 9.5 9.2 98 5 3 24.1 97.35     LegendNANA
09:00 Legend Double Dagger 10.7 9.1 90 16 15 24.1 97.41     LegendNANA
10:00 Legend Double Dagger 11.5 8.2 80 16 20 24.1 97.45     Mostly Cloudy
11:00 Legend Double Dagger 12.9 7.4 69 18 24 24.1 97.49     LegendNANA
12:00 Legend Double Dagger 13.9 7.3 64 19 18 24.1 97.52     LegendNANA
13:00 Legend Double Dagger 13.8 6.0 59 19 22 24.1 97.49     Mainly Clear
14:00 Legend Double Dagger 15.7 5.7 51 19 26 24.1 97.50     LegendNANA
15:00 Legend Double Dagger 15.6 5.0 49 18 22 24.1 97.47     LegendNANA
16:00 Legend Double Dagger 13.0 5.0 58 20 14 24.1 97.52     Mainly Clear
17:00 Legend Double Dagger 12.4 5.6 63 17 8 24.1 97.54     LegendNANA
18:00 Legend Double Dagger 10.5 5.3 70 24 5 24.1 97.60     LegendNANA
19:00 Legend Double Dagger 12.4 5.4 62 16 13 24.1 97.62     Mainly Clear
20:00 Legend Double Dagger 7.0 4.7 85 34 7 24.1 97.66     LegendNANA
21:00 Legend Double Dagger 8.4 5.5 82 4 7 24.1 97.70     LegendNANA
22:00 Legend Double Dagger 7.7 5.0 83 35 11 24.1 97.71     Mostly Cloudy
23:00 Legend Double Dagger 9.0 5.0 76 34 16 24.1 97.76     LegendNANA

Notes on Data Quality.

Legend

  • E = Estimated
  • M = Missing
  • NA = Not Available
  • ‡ = Partner data that is not subject to review by the National Climate Archives
Date modified: